Latest Weather Observations for Frankston

IDV60801

Issued at 3:35 pm EST Thursday 24 April 2014 (issued every 30 minutes, with the page automatically refreshed every 10 minutes)

About weather observations | Map of weather stations | Latest weather observations for VIC | Other Formats
Station Details ID: 086371 Name: FRANKSTON AWS Lat: -38.15 Lon: 145.12 Height: 6.0 m
Data from the previous 72 hours. | See also: Recent months at Frankston
Date/Time
EST
Temp
°C
App
Temp
°C
Dew
Point
Rel
Hum
%
Delta-T
°C
Wind Press
QNH
hPa
Press
MSL
hPa
Rain
since 9 am
mm
Dir
 
Spd
km/h
Gust
km/h
Spd
kts
Gust
kts
24/03:30pm 14.5 8.9 5.3 54 4.3 SW 24 33 13 18 - - -
24/03:00pm 14.7 8.4 5.8 55 4.2 WSW 28 37 15 20 - - -
24/02:30pm 14.5 9.0 5.8 56 4.1 SW 24 33 13 18 - - -
24/02:00pm 14.6 9.0 5.4 54 4.3 WSW 24 32 13 17 - - -
24/01:30pm 14.4 8.9 5.7 56 4.1 WSW 24 33 13 18 - - -
24/01:00pm 14.7 8.6 5.0 52 4.5 WSW 26 35 14 19 - - -
24/12:30pm 14.8 8.5 5.6 54 4.4 WSW 28 35 15 19 - - -
24/12:00pm 14.8 7.5 4.5 50 4.8 WSW 32 41 17 22 - - -
24/11:30am 15.1 6.6 3.0 44 5.5 WSW 37 44 20 24 - - -
24/11:00am 14.9 7.1 5.1 52 4.6 WSW 35 48 19 26 - - -
24/10:30am 14.9 7.0 6.2 56 4.2 WSW 37 50 20 27 - - -
24/10:00am 15.1 7.2 7.9 62 3.6 WSW 39 48 21 26 - - -
24/09:30am 15.2 7.7 9.3 68 3.0 WSW 39 48 21 26 - - -
24/09:16am 15.0 10.0 10.8 76 2.2 WSW 28 52 15 28 - - -
24/09:00am 14.9 10.0 11.3 79 1.9 W 28 32 15 17 - - -
24/08:30am 14.6 9.2 10.8 78 2.0 WSW 30 41 16 22 - - -
24/08:10am 13.5 5.8 10.1 80 1.8 WSW 41 48 22 26 - - -
24/08:00am 14.9 8.8 11.7 81 1.7 WNW 35 43 19 23 - - -
24/07:30am 15.9 9.3 10.0 68 3.1 WNW 35 41 19 22 - - -
24/07:00am 16.5 10.2 9.7 64 3.6 NW 33 41 18 22 - - -
24/06:30am 16.4 10.8 8.9 61 3.9 NNW 28 37 15 20 - - -
24/06:00am 16.3 11.1 8.8 61 3.8 NNW 26 35 14 19 - - -
24/05:30am 16.2 10.4 6.3 52 4.8 NNW 26 35 14 19 - - -
24/05:00am 15.9 10.4 7.7 58 4.1 N 26 33 14 18 - - -
24/04:30am 15.8 10.0 7.8 59 4.0 N 28 33 15 18 - - -
24/04:00am 16.1 10.7 7.8 58 4.2 N 26 35 14 19 - - -
24/03:30am 15.3 10.4 6.8 57 4.2 N 22 28 12 15 - - -
24/03:00am 15.4 10.6 7.4 59 4.0 N 22 26 12 14 - - -
24/02:30am 15.6 10.8 7.4 58 4.1 N 22 26 12 14 - - -
24/02:00am 13.6 10.9 5.5 58 3.8 NNE 9 15 5 8 - - -
24/01:30am 13.6 10.6 6.0 60 3.6 NNE 11 15 6 8 - - -
24/01:00am 14.7 10.8 7.0 60 3.8 N 17 22 9 12 - - -
24/12:30am 15.3 11.2 7.8 61 3.7 N 19 24 10 13 - - -
24/12:00am 15.5 11.5 8.3 62 3.6 N 19 22 10 12 - - -
 
Date/Time
EST
Temp
°C
App
Temp
°C
Dew
Point
Rel
Hum
%
Delta-T
°C
Wind Press
QNH
hPa
Press
MSL
hPa
Rain
since 9 am
mm
Dir
 
Spd
km/h
Gust
km/h
Spd
kts
Gust
kts
23/11:30pm 13.9 12.1 8.1 68 2.9 NNE 7 9 4 5 - - -
23/11:00pm 16.1 14.1 10.2 68 3.1 N 11 19 6 10 - - -
23/10:30pm 14.2 12.7 10.4 78 2.0 NNE 9 13 5 7 - - -
23/10:00pm 13.8 12.6 9.5 75 2.2 ENE 6 9 3 5 - - -
23/09:30pm 13.4 12.4 8.9 74 2.3 E 4 6 2 3 - - -
23/09:00pm 13.7 12.7 9.0 73 2.4 E 4 6 2 3 - - -
23/08:30pm 13.6 12.7 9.1 74 2.3 E 4 6 2 3 - - -
23/08:00pm 13.3 12.3 8.8 74 2.3 ESE 4 6 2 3 - - -
23/07:30pm 14.7 14.3 8.2 65 3.3 CALM 0 2 0 1 - - -
23/07:00pm 14.2 13.3 9.2 72 2.5 ESE 4 4 2 2 - - -
23/06:30pm 14.2 13.2 9.0 71 2.6 ESE 4 6 2 3 - - -
23/06:00pm 14.8 14.7 9.4 70 2.8 CALM 0 0 0 0 - - -
23/05:30pm 15.6 15.2 9.9 69 3.0 W 2 4 1 2 - - -
23/05:00pm 15.7 14.4 10.0 69 3.0 WSW 7 7 4 4 - - -
23/04:30pm 15.7 15.3 9.6 67 3.2 W 2 7 1 4 - - -
23/04:00pm 15.7 15.6 9.6 67 3.2 CALM 0 0 0 0 - - -
23/03:30pm 16.0 16.0 9.9 67 3.2 CALM 0 0 0 0 - - -
23/03:00pm 15.8 15.8 9.9 68 3.1 CALM 0 2 0 1 - - -
23/02:30pm 15.3 14.4 9.4 68 3.0 NW 4 6 2 3 - - -
23/02:00pm 15.2 14.0 9.6 69 2.9 WNW 6 7 3 4 - - -
23/01:30pm 15.3 13.6 9.9 70 2.8 WNW 9 11 5 6 - - -
23/01:00pm 15.0 12.7 9.1 68 3.0 W 11 15 6 8 - - -
23/12:30pm 14.9 13.2 9.7 71 2.7 WNW 9 13 5 7 - - -
23/12:00pm 14.8 12.8 10.2 74 2.4 W 11 13 6 7 - - -
23/11:30am 14.8 13.1 9.8 72 2.6 W 9 13 5 7 - - -
23/11:00am 14.7 13.2 10.5 76 2.2 W 9 11 5 6 - - -
23/10:30am 14.8 13.0 10.8 77 2.1 W 11 15 6 8 - - -
23/10:00am 14.9 12.8 11.1 78 2.0 W 13 15 7 8 - - -
23/09:30am 14.7 13.8 11.3 80 1.8 WNW 7 17 4 9 - - -
23/09:00am 14.6 14.9 10.8 78 2.0 CALM 0 0 0 0 - - -
23/08:30am 13.7 14.1 11.4 86 1.2 CALM 0 2 0 1 - - -
23/08:00am 12.3 12.0 10.2 87 1.1 SE 2 4 1 2 - - -
23/07:30am 12.2 11.8 9.9 86 1.2 ESE 2 4 1 2 - - -
23/07:00am 11.6 10.7 9.2 85 1.2 ESE 4 6 2 3 - - -
23/06:30am 11.0 9.9 8.4 84 1.3 ESE 4 4 2 2 - - -
23/06:00am 10.6 9.7 7.7 82 1.4 ESE 2 4 1 2 - - -
23/05:30am 12.1 10.8 9.1 82 1.5 SE 6 7 3 4 - - -
23/05:00am 11.2 9.6 8.6 84 1.3 ESE 7 9 4 5 - - -
23/04:30am 11.7 10.6 8.4 80 1.6 SE 4 6 2 3 - - -
23/04:00am 11.4 10.6 8.1 80 1.6 SE 2 6 1 3 - - -
23/03:30am 13.6 12.0 8.7 72 2.5 SSE 7 7 4 4 - - -
23/03:00am 13.8 12.3 9.3 74 2.3 SSE 7 9 4 5 - - -
23/02:30am 13.6 12.2 8.9 73 2.4 SSE 6 7 3 4 - - -
23/02:00am 14.0 12.7 9.2 73 2.4 SSE 6 7 3 4 - - -
23/01:30am 14.0 12.7 9.2 73 2.4 SSE 6 7 3 4 - - -
23/01:00am 14.0 12.8 9.4 74 2.4 SSE 6 7 3 4 - - -
23/12:30am 13.9 12.6 9.3 74 2.3 SSE 6 7 3 4 - - -
23/12:00am 14.3 13.1 9.5 73 2.5 SSE 6 6 3 3 - - -
 
Date/Time
EST
Temp
°C
App
Temp
°C
Dew
Point
Rel
Hum
%
Delta-T
°C
Wind Press
QNH
hPa
Press
MSL
hPa
Rain
since 9 am
mm
Dir
 
Spd
km/h
Gust
km/h
Spd
kts
Gust
kts
22/11:30pm 14.2 13.1 9.8 75 2.3 SSE 6 6 3 3 - - -
22/11:00pm 14.2 13.2 10.2 77 2.1 SSE 6 7 3 4 - - -
22/10:30pm 14.3 13.6 9.9 75 2.3 SSE 4 6 2 3 - - -
22/10:00pm 14.3 14.4 10.3 77 2.1 CALM 0 0 0 0 - - -
22/09:30pm 14.7 14.9 10.5 76 2.2 CALM 0 0 0 0 - - -
22/09:00pm 15.0 15.2 10.6 75 2.3 CALM 0 0 0 0 - - -
22/08:30pm 15.1 15.4 10.9 76 2.2 CALM 0 0 0 0 - - -
22/08:00pm 15.1 15.4 10.9 76 2.2 CALM 0 0 0 0 - - -
22/07:30pm 15.2 15.1 10.8 75 2.3 S 2 6 1 3 - - -
22/07:00pm 15.4 15.8 11.2 76 2.2 CALM 0 0 0 0 - - -
22/06:30pm 15.5 15.2 11.3 76 2.3 SSW 4 6 2 3 - - -
22/06:00pm 15.6 15.8 12.0 79 2.0 SSW 2 6 1 3 - - -
22/05:30pm 15.7 15.8 12.8 83 1.6 S 4 11 2 6 - - -
22/05:00pm 15.8 16.7 12.9 83 1.6 CALM 0 0 0 0 - - -
22/04:30pm 15.8 16.7 12.9 83 1.6 CALM 0 4 0 2 - - -
22/04:00pm 15.7 15.8 12.6 82 1.7 SSW 4 7 2 4 - - -
22/03:30pm 15.7 14.0 12.3 80 1.9 WNW 13 19 7 10 - - -
22/03:00pm 16.1 15.0 12.1 77 2.2 NNW 9 13 5 7 - - -
22/02:30pm 15.9 14.9 12.3 79 2.0 N 9 11 5 6 - - -
22/02:00pm 15.9 13.7 12.1 78 2.1 N 15 19 8 10 - - -
22/01:30pm 15.6 12.9 11.8 78 2.1 N 17 22 9 12 - - -
22/01:00pm 15.6 12.4 11.8 78 2.1 N 20 26 11 14 - - -
22/12:30pm 15.2 11.6 12.0 81 1.7 N 22 28 12 15 - - -
22/12:00pm 14.4 10.3 11.6 83 1.5 N 24 32 13 17 - - -
22/11:30am 15.0 9.7 11.2 78 2.0 N 30 35 16 19 - - -
22/11:00am 15.6 11.4 11.2 75 2.4 N 24 32 13 17 - - -
22/10:30am 15.3 11.1 11.1 76 2.2 N 24 33 13 18 - - -
22/10:00am 15.3 13.0 11.7 79 1.9 N 15 24 8 13 - - -
22/09:30am 15.2 11.8 11.4 78 2.0 N 20 28 11 15 - - -
22/09:00am 14.0 11.8 10.8 81 1.7 NNE 13 20 7 11 - - -
22/08:30am 14.9 10.8 11.3 79 1.9 NNE 24 33 13 18 - - -
22/08:00am 13.9 9.3 11.1 83 1.5 N 26 32 14 17 - - -
22/07:30am 14.7 9.6 10.5 76 2.2 NNW 28 35 15 19 - - -
22/07:00am 15.5 10.3 10.3 71 2.7 NNW 28 33 15 18 - - -
22/06:30am 17.3 11.7 10.0 62 3.9 NNW 30 35 16 19 - - -
22/06:00am 17.9 11.7 9.5 58 4.4 NNW 32 46 17 25 - - -
22/05:30am 18.2 12.0 9.5 57 4.6 NW 32 41 17 22 - - -
22/05:00am 18.9 13.3 8.8 52 5.3 NNW 28 41 15 22 - - -
22/04:30am 18.9 13.6 8.6 51 5.3 N 26 35 14 19 - - -
22/04:00am 18.8 13.8 8.2 50 5.5 NNW 24 30 13 16 - - -
22/03:30am 18.7 13.7 8.1 50 5.4 NNW 24 32 13 17 - - -
22/03:00am 18.3 12.5 9.6 57 4.6 W 30 41 16 22 - - -
22/02:30am 18.4 14.9 8.7 53 5.0 N 17 24 9 13 - - -
22/02:00am 17.9 14.7 7.0 49 5.4 NNE 13 22 7 12 - - -
22/01:30am 18.1 12.3 7.8 51 5.2 N 28 35 15 19 - - -
22/01:00am 18.2 11.9 7.6 50 5.4 N 30 37 16 20 - - -
22/12:30am 18.1 12.0 8.4 53 5.0 N 30 35 16 19 - - -
22/12:00am 18.0 12.3 8.3 53 5.0 N 28 37 15 20 - - -
 
Date/Time
EST
Temp
°C
App
Temp
°C
Dew
Point
Rel
Hum
%
Delta-T
°C
Wind Press
QNH
hPa
Press
MSL
hPa
Rain
since 9 am
mm
Dir
 
Spd
km/h
Gust
km/h
Spd
kts
Gust
kts
21/11:30pm 17.9 12.2 8.5 54 4.8 N 28 37 15 20 - - -
21/11:00pm 18.0 11.8 8.0 52 5.1 N 30 39 16 21 - - -
21/10:30pm 17.6 11.9 8.5 55 4.7 N 28 35 15 19 - - -
21/10:00pm 17.4 12.5 8.5 56 4.6 NNE 24 35 13 19 - - -
21/09:30pm 17.5 12.6 8.4 55 4.7 N 24 32 13 17 - - -
21/09:00pm 17.6 12.2 8.2 54 4.8 N 26 33 14 18 - - -
21/08:30pm 17.6 12.2 8.2 54 4.8 N 26 32 14 17 - - -
21/08:00pm 17.5 12.6 8.6 56 4.6 N 24 33 13 18 - - -
21/07:30pm 17.6 12.7 8.5 55 4.7 N 24 32 13 17 - - -
21/07:00pm 17.7 11.7 8.6 55 4.7 N 30 43 16 23 - - -
21/06:30pm 17.8 12.1 8.4 54 4.8 N 28 35 15 19 - - -
21/06:00pm 17.9 12.9 7.9 52 5.1 N 24 37 13 20 - - -
21/05:30pm 17.9 13.3 8.2 53 5.0 NNE 22 32 12 17 - - -
21/05:00pm 18.0 11.9 8.3 53 5.0 N 30 43 16 23 - - -
21/04:30pm 18.2 11.4 9.3 56 4.7 N 35 48 19 26 - - -
21/04:00pm 18.3 11.2 8.0 51 5.3 N 35 46 19 25 - - -

Other Formats:

Comma delimited format used in spreadsheet applications
http://www.bom.gov.au/fwo/IDV60801/IDV60801.94871.axf

JavaScript Object Notation format (JSON) in row-major order
http://www.bom.gov.au/fwo/IDV60801/IDV60801.94871.json